Regional Weather Roundup
Issued by NWS Northern Indiana

Home | Current Version | Previous Version | Graphics & Text | Print | Product List | Glossary On
Versions: 1 2 3 4 5 6 7 8 9 10 11 12 13 14 15 16 17 18 19 20 21 22 23 24 25 26 27 28 29 30 31 32 33 34 35 36 37 38 39 40 41 42 43 44 45 46 47 48 49 50
000
ASUS43 KIWX 080600
RWRIWX

KIWX WEATHER ROUNDUP
NATIONAL WEATHER SERVICE NORTHERN INDIANA
100 AM EST THU DEC 08 2016

NOTE: "FAIR" INDICATES FEW OR NO CLOUDS BELOW 12,000 FEET WITH NO
SIGNIFICANT WEATHER AND/OR OBSTRUCTIONS TO VISIBILITY.

* THESE STATIONS ARE NOT UNDER NWS QUALITY CONTROL. THEY ALSO MAY NOT
  REPORT WEATHER SUCH AS PRECIPITATION OR FOG.

INZ001>027-080700-
NORTHERN INDIANA

CITY           SKY/WX    TMP DP  RH WIND       PRES   REMARKS
SOUTH BEND     CLOUDY    24  17  74 W17G25    30.13R WCI  11
6HR MIN TEMP:  24; 6HR MAX TEMP:  27;

GOSHEN         CLOUDY    25  16  68 W17       30.12S WCI  12
6HR MIN TEMP:  25; 6HR MAX TEMP:  29;

ANGOLA*        CLOUDY    27  19  74 W15       30.07S WCI  15
FORT WAYNE     CLOUDY    26  18  71 W14G23    30.13S WCI  14
6HR MIN TEMP:  26; 6HR MAX TEMP:  31;

PERU/GRISSOM   CLOUDY    25  18  73 W16       30.15R WCI  12
6HR MIN TEMP:  24; 6HR MAX TEMP:  31;


$$
INZ028>050-080700-
CENTRAL INDIANA

CITY           SKY/WX    TMP DP  RH WIND       PRES   REMARKS
LAFAYETTE      CLOUDY    24  17  74 W14       30.22R WCI  12
6HR MIN TEMP:  24; 6HR MAX TEMP:  29;

KOKOMO*        MOCLDY    25  18  74 W23       30.18R WCI  10
6HR MIN TEMP:  25; 6HR MAX TEMP:  30;

MUNCIE*        MOCLDY    28  19  69 W22G30    30.16S WCI  14
6HR MIN TEMP:  28; 6HR MAX TEMP:  33;

INDIANAPOLIS   MOCLDY    27  20  75 W12       30.20R WCI  17
6HR MIN TEMP:  27; 6HR MAX TEMP:  33;


$$
MIZ043>046-050>051-056>058-064>065-071>073-077>080-080700-
SOUTHWEST LOWER MICHIGAN

CITY           SKY/WX    TMP DP  RH WIND       PRES   REMARKS
BATTLE CREEK   CLOUDY    28  20  71 W18       30.04S WCI  15
6HR MIN TEMP:  28; 6HR MAX TEMP:  30;

BENTON HARBOR  CLOUDY    27  18  69 W22G30    30.11S WCI  13
6HR MIN TEMP:  27; 6HR MAX TEMP:  32;

COLDWATER*     CLOUDY    28  19  69 W14G23    30.06S WCI  17
6HR MIN TEMP:  28; 6HR MAX TEMP:  29;

HILLSDALE*     CLOUDY    27  19  74 W12       30.02F WCI  16
HOLLAND        CLOUDY    28  20  71 W16G23    30.06S WCI  16
6HR MIN TEMP:  27; 6HR MAX TEMP:  33;

GRAND RAPIDS   CLOUDY    27  19  72 W18       30.03F WCI  14
6HR MIN TEMP:  27; 6HR MAX TEMP:  33; 6HR PCP: TRACE;

KALAMAZOO      CLOUDY    28  19  69 W15G22    30.06S WCI  16
6HR MIN TEMP:  28; 6HR MAX TEMP:  31;

STURGIS*       CLOUDY    27  19  74 W13       30.07S WCI  16
6HR MIN TEMP:  27; 6HR MAX TEMP:  28;

THREE RIVERS*  CLOUDY    27  20  74 W13G20    30.09R WCI  16
6HR MIN TEMP:  27; 6HR MAX TEMP:  29;


$$
OHZ001>008-015>018-024>025-080700-
NORTHWEST OHIO

CITY           SKY/WX    TMP DP  RH WIND       PRES   REMARKS
DEFIANCE       CLOUDY    29  18  63 W10G22    30.11R WCI  20
6HR MIN TEMP:  29; 6HR MAX TEMP:  33;

FINDLAY        CLEAR     29  20  69 W18G28    30.09S WCI  16
6HR MIN TEMP:  29; 6HR MAX TEMP:  34;

TOLEDO EXPRESS CLOUDY    28  20  71 W15       30.08R WCI  16
6HR MIN TEMP:  28; 6HR MAX TEMP:  32;

TOLEDO METCALF CLOUDY    30  21  69 W16       30.08S WCI  19
6HR MIN TEMP:  30; 6HR MAX TEMP:  33;

LIMA           MOCLDY    29  22  75 W16       30.10F WCI  17
6HR MIN TEMP:  29; 6HR MAX TEMP:  32;


$$
AND FOR LAKE MICHIGAN COASTAL AND OPEN LAKE BUOY OBSERVATIONS

STATION/POSITION TEMP    WIND        PRES    VSBY  WAVE
                 AIR SEA DIR/SP/G                  HT/PER
                 (F)     (DEG/KT/KT) (MB)    (MI)  (FT/S)
CALUMET HARBOR    24     260/  9/ 18 1020.6S
MICHIGAN CITY     26     240/ 22/ 29   N/A

$$
&&



USA.gov is the U.S. government's official web portal to all federal, state and local government web resources and services.